x

8721604 - Trident Pier, Fl (trdf1) Weather Station

8:42am - Sat 18th Aug 2018 All times are EDT. -4 hours from GMT.

  • Wind
    2mph, 3mph gusts
  • Sea Temp 81°f
  • Air Temp 82°f
  • Sea Pressure 1022.4mb
  • 8721604 - Trident Pier, Fl
  • 8721604 - Trident Pier, Fl

More Historic Weather Station data

Upgrade to MSW Pro to gain access to the past 30 days of data for over 8000 Wavebouys and Weather Stations around the globe.

Join

Comparision Forecast

View Surf forecast
   
Sat 08/18 8:42am 2 3 mph 1022.4mb 81f 82f
8:36am 3 5 mph 1022.3mb 81f 82f
8:30am 3 5 mph 1022.3mb 81f 82f
8:24am 3 3 mph 1022.2mb 81f 81f
8:18am 2 3 mph 1022.3mb 81f -
8:12am 2 3 mph 1022.1mb 81f 81f
8:06am 2 3 mph 1022.1mb 82f 81f
8:00am 2 2 mph 1022.1mb 82f 81f
7:54am 1 2 mph 1022.1mb 82f 80f
7:48am 2 3 mph 1022.1mb 82f 80f
7:42am 2 2 mph - - -
7:36am 2 3 mph 1022.1mb 82f 79f
7:30am 3 3 mph 1022.1mb 82f 78f
7:24am 3 5 mph 1022.1mb 82f 78f
7:18am 3 3 mph 1022mb 82f 78f
7:12am 3 3 mph 1022mb 82f 78f
7:06am 3 3 mph 1022mb 82f 78f
7:00am 3 3 mph 1021.9mb 82f 78f
6:54am 3 3 mph 1021.8mb 82f 78f
6:48am 2 3 mph 1021.8mb 82f 78f
6:42am 2 3 mph 1021.8mb 82f 78f
6:36am 2 2 mph 1021.8mb 82f 77f
6:30am 1 1 mph 1021.8mb 82f 77f
6:24am  -  1 mph 1021.8mb 82f 77f
6:18am  -  1 mph 1021.8mb 82f 77f
6:12am  -  1 mph 1021.8mb 82f 75f
6:06am  -  1 mph 1021.9mb 82f 76f
6:00am 1 2 mph 1021.8mb 82f 77f
5:54am  -  2 mph 1021.8mb 82f 77f
5:48am 2 3 mph 1021.7mb 81f 77f
5:42am 2 2 mph 1021.7mb 82f 78f
5:36am 2 3 mph 1021.6mb 82f 78f
5:30am 3 5 mph 1021.6mb 82f 78f
5:24am 5 5 mph 1021.6mb 82f 78f
5:18am 3 5 mph 1021.7mb 82f 79f
5:12am 3 5 mph 1021.7mb 81f 79f
5:06am 3 3 mph 1021.7mb 81f 79f
5:00am 3 3 mph 1021.9mb 81f 79f
4:54am 2 3 mph 1021.8mb 82f 79f
4:48am 2 3 mph 1021.9mb 82f 79f
4:42am 3 3 mph 1021.8mb 82f 79f
4:36am 2 5 mph 1021.9mb 82f 79f
4:30am 5 5 mph 1021.9mb 82f 79f
4:24am 3 3 mph 1022mb 82f 79f
4:18am 2 3 mph 1022mb 82f 79f
4:12am 3 5 mph 1022mb 82f 79f
4:06am 3 5 mph 1022mb 82f 79f
4:00am 3 5 mph 1022.1mb 82f 79f
3:54am 3 5 mph 1022.1mb 82f 79f
3:48am 3 6 mph 1022.1mb 82f 79f
3:42am 5 6 mph 1022.1mb 82f 79f
3:36am 5 5 mph 1022.2mb 82f 79f
3:30am 5 6 mph 1022.3mb 82f 80f
3:24am 3 5 mph 1022.3mb 82f 80f
3:18am 3 5 mph 1022.4mb 82f 80f
3:06am 2 5 mph 1022.5mb 82f 80f
3:00am 3 5 mph 1022.6mb 82f 80f
2:54am 3 6 mph 1022.6mb 82f 80f
2:48am 5 7 mph 1022.6mb 82f 80f
2:42am 5 7 mph 1022.7mb 82f 80f
2:36am 6 7 mph 1022.7mb 82f 80f
2:30am 6 8 mph 1022.8mb 82f 80f
2:24am 6 8 mph 1022.8mb 82f 80f
2:18am 6 7 mph 1022.8mb 82f -
2:12am 6 7 mph 1022.9mb 82f 80f
2:06am 5 7 mph 1023mb 82f 80f
2:00am 5 7 mph 1023.1mb 82f 80f
1:54am 6 7 mph 1023.2mb 82f 80f
1:48am 6 9 mph 1023.2mb - -
1:42am 7 8 mph 1023.4mb - -
1:36am 5 7 mph 1023.3mb - -
1:30am 5 6 mph 1023.4mb - -
1:24am 5 6 mph 1023.5mb 82f 80f
1:18am 3 6 mph 1023.6mb 82f 80f
1:12am 5 6 mph 1023.6mb 82f 80f
1:06am 3 6 mph 1023.6mb 82f 80f
1:00am 5 7 mph 1023.5mb 82f 80f
12:18am 6 8 mph - - -
12:12am 5 6 mph 1023.4mb 82f 80f
12:06am 5 6 mph 1023.4mb 82f 80f
Fri 08/17 11:54pm 5 7 mph 1023.5mb 82f 80f
11:48pm 5 6 mph 1023.6mb 82f 80f
11:42pm 6 7 mph 1023.6mb 82f 80f
11:36pm 5 6 mph 1023.6mb 82f 80f
11:30pm 5 6 mph 1023.5mb 82f 80f
11:24pm 3 5 mph 1023.5mb 82f 80f
11:18pm 3 6 mph 1023.5mb 82f 80f
11:12pm 5 6 mph 1023.5mb 82f 80f
11:06pm 5 6 mph 1023.5mb 82f 80f
11:00pm 5 7 mph 1023.4mb 82f 80f
10:54pm 5 6 mph 1023.5mb 82f 80f
10:48pm 3 6 mph 1023.4mb 82f 80f
10:42pm 3 6 mph 1023.4mb 82f 80f
10:36pm 5 8 mph 1023.3mb 82f 80f
10:30pm 5 6 mph 1023.3mb 82f 80f
10:24pm 3 6 mph 1023.3mb 82f 80f
10:18pm 3 7 mph 1023.3mb 82f 80f
10:12pm 3 6 mph 1023.3mb 82f 80f
10:06pm 3 6 mph 1023.4mb 82f 80f
10:00pm 3 6 mph 1023.3mb 82f 80f
9:54pm 5 6 mph 1023.3mb 82f 80f
9:48pm 5 6 mph 1023.2mb 82f 80f
9:42pm 3 6 mph 1023.2mb 82f 80f
9:36pm 3 5 mph 1023.1mb 83f 80f
9:30pm 3 5 mph 1023.1mb 83f 80f
9:24pm 3 6 mph 1023mb 83f 80f
9:18pm 5 6 mph 1022.8mb 83f 80f
9:12pm 3 6 mph 1022.7mb 83f 80f
9:06pm 3 5 mph 1022.5mb 83f 80f
9:00pm 3 6 mph 1022.4mb 82f 80f
8:42pm 3 6 mph 1022.6mb 83f 80f
8:36pm 3 5 mph 1022.6mb 83f 80f
8:30pm 3 5 mph 1022.6mb 83f 80f
8:24pm 2 3 mph 1022.6mb 83f 80f
8:18pm 3 6 mph 1022.6mb 83f 80f
8:12pm 3 6 mph 1022.5mb 83f 81f
8:06pm 3 6 mph 1022.6mb 83f 81f
8:00pm 3 7 mph 1022.6mb 83f 81f
7:54pm 5 6 mph 1022.6mb 83f 81f
7:48pm 5 7 mph 1022.6mb 83f 81f
7:42pm 3 7 mph 1022.6mb 83f 82f
7:36pm 5 7 mph 1022.5mb 83f 82f
7:30pm 5 7 mph 1022.5mb 83f 83f
7:24pm 5 6 mph 1022.6mb 83f 83f
7:18pm 3 6 mph 1022.6mb 83f 84f
7:12pm 5 7 mph 1022.8mb 83f 84f
7:06pm 5 7 mph 1022.7mb 83f 84f
7:00pm 5 7 mph 1022.7mb 83f 84f
6:54pm 6 7 mph 1022.8mb 83f 85f
6:48pm 5 8 mph 1022.8mb 83f 85f
6:42pm 5 7 mph 1022.8mb 83f 85f
6:36pm 6 8 mph 1022.8mb 83f 85f
6:30pm 6 9 mph 1022.8mb 83f 85f
6:24pm 6 9 mph 1022.8mb 83f 85f
6:18pm 7 9 mph 1022.7mb 83f -
6:12pm 7 10 mph 1022.7mb 83f 86f
6:06pm 6 10 mph 1022.7mb 83f 86f
6:00pm 7 10 mph 1022.7mb 82f 86f
5:54pm 7 9 mph 1022.7mb 82f 86f
5:48pm 6 8 mph 1022.7mb 82f 87f
5:42pm 6 9 mph 1022.7mb 82f 87f
5:36pm 7 9 mph 1022.6mb 82f 87f
5:30pm 8 10 mph 1022.6mb 82f 86f
5:24pm 6 10 mph 1022.6mb 82f 87f
5:18pm 7 10 mph 1022.6mb 82f 87f
5:12pm 7 10 mph 1022.6mb 82f 87f
5:06pm 8 11 mph 1022.6mb 82f 87f
5:00pm 7 11 mph 1022.7mb 82f 87f
4:54pm 7 10 mph 1022.8mb 82f 88f
4:48pm 7 11 mph 1022.9mb 81f 88f
4:42pm 8 11 mph 1022.8mb 81f 87f
4:36pm 7 11 mph 1022.8mb 81f 87f
4:30pm 9 11 mph 1022.8mb 81f 87f
4:24pm 8 11 mph 1022.9mb 81f 87f
4:18pm 8 11 mph 1022.9mb 81f 87f
4:12pm 8 11 mph 1023.1mb 81f 88f
4:06pm 7 13 mph 1023.1mb 81f 89f
4:00pm 8 10 mph 1023.2mb 81f 89f
3:54pm 8 11 mph 1023.1mb 81f 88f
3:48pm 8 11 mph 1023.1mb 80f 88f
3:42pm 9 13 mph 1023mb 80f 87f
3:36pm 9 13 mph 1023mb 80f 87f
3:30pm 9 13 mph 1023mb 80f 87f
3:24pm 9 14 mph 1023.1mb 80f 88f
3:18pm 9 14 mph 1023.2mb 80f -
3:12pm 9 13 mph 1023.3mb 80f 87f
3:06pm 9 14 mph 1023.4mb 80f 87f
3:00pm 10 14 mph 1023.5mb 80f 87f
2:48pm 8 13 mph 1023.6mb 80f 89f
2:42pm 9 14 mph 1023.8mb 80f 88f
2:36pm 10 13 mph 1023.9mb 80f 88f
2:30pm 8 14 mph 1023.9mb 80f 89f
2:24pm 9 14 mph 1024mb 80f 88f
2:18pm 9 13 mph 1024.1mb 80f 87f
2:06pm 9 13 mph 1024.3mb 80f 88f
2:00pm 10 13 mph 1024.3mb 80f 87f
1:54pm 9 13 mph 1024.3mb 80f 88f
1:48pm 10 13 mph 1024.3mb 80f 87f
1:42pm 9 13 mph 1024.4mb 81f 87f
1:36pm 8 13 mph 1024.4mb 81f 87f
1:30pm 8 13 mph - - -
1:24pm 7 10 mph 1024.7mb 80f 87f
1:18pm 7 11 mph 1024.7mb 80f 87f
1:12pm 7 11 mph 1024.7mb 80f 87f
1:06pm 8 11 mph 1024.7mb 80f 87f
1:00pm 9 11 mph 1024.7mb 80f 87f
12:54pm 7 10 mph 1024.8mb 80f 88f
12:48pm 8 10 mph 1024.8mb 80f 87f
12:42pm 6 9 mph 1024.8mb 80f 90f
12:36pm 6 8 mph 1024.9mb 80f 90f
12:30pm 5 9 mph 1024.9mb 80f 89f
12:24pm 5 9 mph 1024.9mb 80f 88f
12:18pm 6 9 mph 1024.9mb 80f 86f
12:12pm 6 9 mph 1024.9mb 80f 86f
12:06pm 8 9 mph 1024.9mb 80f 85f
12:00pm 8 9 mph 1024.8mb 80f 87f
11:54am 6 9 mph 1024.9mb 80f 89f
11:48am 8 9 mph 1024.9mb 80f 87f
11:42am 7 8 mph 1024.9mb 80f 86f
11:36am 7 9 mph 1024.9mb 80f 86f
11:30am 6 8 mph 1024.9mb 80f 86f
11:24am 7 9 mph 1025mb 80f 86f
11:18am 7 9 mph 1024.9mb 81f 86f
11:12am 7 9 mph 1024.9mb 81f 87f
11:06am 7 9 mph 1024.9mb 81f 86f
11:00am 6 8 mph 1025.1mb 81f 87f
10:54am 7 8 mph 1025.1mb 81f 86f
10:48am 7 9 mph 1025.1mb 82f 86f
10:42am 6 8 mph 1025.1mb 82f 87f
10:36am 6 7 mph 1025.1mb 82f 86f
10:30am 5 6 mph 1025.1mb 82f 87f
10:24am 5 6 mph 1025mb 82f 86f
10:18am 3 6 mph 1024.9mb 82f 87f
10:12am 5 7 mph 1024.9mb 82f 86f
10:06am 6 7 mph 1024.9mb 82f 86f
10:00am 6 7 mph 1024.9mb 82f 86f
9:54am 5 6 mph 1024.9mb 82f 86f
9:48am 5 6 mph 1024.9mb 82f 86f
9:42am 5 7 mph 1024.9mb 82f 86f
9:36am 3 6 mph 1024.9mb 82f 86f
9:30am 3 5 mph 1024.9mb 82f 85f
9:24am 2 6 mph 1024.8mb 82f 86f
9:18am  -  6 mph 1024.7mb 82f 85f
9:06am 1 3 mph 1024.6mb 82f 85f
9:00am 2 3 mph 1024.5mb 82f 85f
8:48am 2 3 mph 1024.4mb 82f -
8:42am 2 3 mph 1024.4mb 82f 84f
8:36am 2 3 mph 1024.4mb 82f 83f
8:30am 2 3 mph 1024.3mb 82f 83f
8:24am 2 3 mph 1024.4mb 82f 83f
8:18am 2 3 mph 1024.4mb 82f 83f
8:12am 2 3 mph 1024.3mb 82f 83f
8:06am 2 3 mph 1024.3mb 82f 82f
8:00am 2 2 mph 1024.3mb 82f 82f
7:54am 1 1 mph 1024.2mb 82f 82f
7:48am  -  1 mph 1024.1mb 82f 81f
7:42am  -  1 mph 1024mb 82f 81f
7:36am  -  1 mph 1023.9mb 82f 80f
7:30am  -  1 mph 1023.8mb 82f 79f
7:24am  -  0 mph 1023.8mb 82f 78f
7:18am  -  1 mph 1023.8mb 82f 78f
7:12am  -  1 mph 1023.7mb 82f 78f
7:06am  -  1 mph 1023.6mb 82f 78f
7:00am  -  1 mph 1023.5mb 82f 78f
6:54am  -  1 mph 1023.5mb 82f 78f
6:48am  -  1 mph 1023.4mb 82f 78f
6:42am  -  1 mph 1023.3mb 82f 78f
6:36am  -  1 mph 1023.3mb 82f 78f
6:30am  -  1 mph 1023.3mb 82f 78f
6:24am 1 1 mph 1023.2mb 82f 77f
6:18am  -  1 mph 1023.2mb 82f 77f
6:12am 1 2 mph 1023.2mb 82f 79f
6:06am 2 2 mph 1023.2mb 82f 79f
6:00am  -  2 mph 1023.1mb 82f 79f
5:18am 3 5 mph 1022.9mb 82f 79f
5:06am 3 5 mph 1022.9mb 82f 79f
5:00am 3 5 mph 1022.9mb 82f 79f
4:54am 5 6 mph 1022.8mb 82f 79f
4:48am 3 5 mph 1022.8mb 82f 79f
4:42am 3 3 mph 1023mb 82f 79f
4:36am 2 5 mph 1023mb 82f 80f
4:30am 3 3 mph 1023mb 82f -
4:24am 3 5 mph 1023mb 82f 80f
4:18am 3 5 mph 1023mb 82f 80f
4:12am 5 6 mph 1023mb 82f 80f
4:06am 6 7 mph 1022.9mb 82f 80f
4:00am 6 7 mph 1023mb 82f 80f
3:54am 6 7 mph 1023mb 82f 80f
3:48am 6 8 mph 1023.1mb 82f 80f
3:36am 5 7 mph 1023.1mb 82f 80f
3:30am 6 7 mph 1023.2mb 82f 80f
3:24am 5 8 mph 1023.3mb 82f 80f
3:18am 6 8 mph 1023.3mb 82f 80f
3:12am 6 8 mph 1023.3mb 82f 80f
3:06am 6 8 mph 1023.4mb 82f 80f
3:00am 6 7 mph 1023.5mb 82f 80f
2:54am 6 8 mph 1023.6mb 81f 80f
2:48am 6 8 mph 1023.5mb 81f 80f
2:42am 6 9 mph 1023.5mb 81f 80f
2:36am 7 10 mph 1023.5mb 81f 80f
2:30am 7 10 mph 1023.6mb 81f 80f
2:24am 8 10 mph 1023.6mb 81f 80f
2:18am 8 9 mph - - -
2:12am 7 9 mph 1023.7mb 81f 80f
2:06am 7 9 mph 1023.7mb 81f 80f
2:00am 8 10 mph 1023.9mb 81f 80f
1:54am 8 10 mph 1024mb 81f 80f
1:48am 7 9 mph 1024mb 81f 80f
1:42am 7 9 mph 1024.1mb - -
1:36am 6 10 mph 1024.2mb - -
1:30am 7 9 mph 1024.2mb - -
1:24am 7 9 mph 1024.3mb 81f 80f
1:18am 7 10 mph 1024.3mb 81f 80f
1:12am 7 9 mph 1024.4mb 81f 80f
1:06am 6 9 mph 1024.5mb 81f 80f
1:00am 7 9 mph 1024.5mb 81f 80f
12:54am 6 9 mph 1024.6mb 81f 80f
12:48am 6 8 mph 1024.5mb 81f 80f
12:42am 7 9 mph 1024.6mb 81f 80f
12:36am 6 7 mph 1024.6mb 81f 80f
12:30am 6 8 mph 1024.8mb 81f 80f
12:24am 6 9 mph 1024.9mb 81f 80f
12:18am 6 8 mph 1024.9mb 81f 81f
12:12am 6 7 mph 1024.9mb 81f 81f
12:06am 6 7 mph 1024.8mb 81f 81f
12:00am 6 7 mph 1024.8mb 80f 81f
Thu 08/16 11:54pm 5 6 mph 1024.8mb 80f 81f
11:48pm 6 7 mph 1024.8mb 81f 81f
11:42pm 5 7 mph 1024.8mb 81f 81f
11:36pm 6 7 mph 1024.7mb 81f 81f
11:30pm 5 7 mph 1024.6mb 81f 81f
11:24pm 5 7 mph 1024.4mb 81f 81f
11:18pm 5 6 mph 1024.5mb 80f 81f
11:12pm 5 7 mph 1024.6mb 80f 81f
11:06pm 5 7 mph 1024.7mb 81f 81f
11:00pm 6 7 mph 1024.6mb 80f 81f
10:18pm 6 9 mph 1024.1mb 81f 81f
10:12pm 6 8 mph 1024.1mb 81f 81f
10:06pm 6 8 mph 1024.1mb 81f 81f
10:00pm 5 9 mph 1024.1mb 81f 81f
9:54pm 6 8 mph 1024.1mb 81f 81f
9:48pm 5 7 mph 1024.1mb 81f 81f
9:42pm 6 8 mph 1024.1mb 81f 81f
9:36pm 6 8 mph 1024.1mb 81f 81f
9:30pm 6 7 mph 1024.1mb 81f 81f
9:24pm 6 9 mph 1024mb 81f 81f
9:18pm 6 8 mph 1023.8mb 81f 81f
9:12pm 7 8 mph 1023.7mb 81f 81f
9:06pm 7 8 mph 1023.8mb 81f 81f
9:00pm 5 7 mph 1023.8mb 81f 81f
8:54pm 6 8 mph 1023.7mb 81f 81f
8:48pm 6 8 mph 1023.7mb 81f 81f
8:42pm 6 8 mph 1023.6mb 80f 81f
8:36pm 6 7 mph 1023.6mb 80f 81f
8:30pm 5 7 mph 1023.7mb 80f 81f
8:24pm 5 7 mph 1023.6mb 80f 81f
8:18pm 5 7 mph 1023.5mb 80f 81f
8:12pm 5 7 mph 1023.6mb 80f 81f
8:06pm 5 8 mph 1023.4mb 80f 81f
8:00pm 3 7 mph 1023.3mb 80f 81f
7:54pm 5 6 mph 1023.2mb 80f 81f
7:48pm 3 6 mph 1023.2mb 80f 82f
7:42pm 5 7 mph 1023.1mb 80f 82f
7:36pm 6 9 mph 1022.9mb 80f 82f
7:30pm 5 7 mph 1022.9mb 80f 82f
7:24pm 6 8 mph 1022.6mb 80f 82f
7:18pm 5 8 mph 1022.4mb 80f 83f
7:12pm 5 8 mph 1022.3mb 80f 83f
7:06pm 5 8 mph 1022.3mb 80f 84f
7:00pm 5 9 mph 1022.2mb 80f 85f
6:54pm 6 9 mph 1022mb 79f 85f
6:48pm 6 9 mph 1022.1mb 79f 85f
6:42pm 7 9 mph 1022.2mb 79f 84f
6:36pm 6 9 mph 1022.1mb 79f 85f
6:30pm 7 10 mph 1022.3mb 79f 85f
6:24pm 7 10 mph 1022.4mb 79f 85f
6:18pm 7 10 mph - - -
6:12pm 6 9 mph 1022.5mb 79f 86f
6:06pm 7 10 mph 1022.6mb 79f 85f
6:00pm 6 9 mph 1022.5mb 79f 86f
5:54pm 7 11 mph 1022.6mb 78f 86f
5:48pm 6 8 mph 1022.7mb 77f 86f
5:42pm 6 10 mph 1022.7mb 78f 86f
5:36pm 7 10 mph 1022.6mb 78f 87f
5:30pm 6 10 mph 1022.6mb 78f 89f
5:24pm 6 11 mph 1022.6mb 78f 88f
5:18pm 6 10 mph 1022.6mb 77f 87f
5:12pm 7 10 mph 1022.6mb 77f 88f
5:06pm 8 11 mph 1022.6mb 77f 87f
5:00pm 8 11 mph 1022.6mb 77f 87f
4:54pm 8 11 mph 1022.6mb 77f 87f
4:48pm 8 10 mph 1022.6mb 77f 87f
4:42pm 7 11 mph 1022.6mb 77f 87f
4:36pm 7 10 mph 1022.7mb 77f 86f
4:30pm 7 8 mph 1022.7mb 77f 87f
4:24pm 6 10 mph 1022.8mb 77f 88f
4:18pm 7 10 mph 1022.8mb 76f 87f
4:12pm 8 11 mph 1022.9mb 76f 88f
4:06pm 8 11 mph 1022.9mb 76f 87f
4:00pm 7 9 mph 1022.8mb 76f 88f
3:54pm 8 10 mph 1022.8mb 76f 88f
3:48pm 7 10 mph - - -
3:42pm 8 11 mph 1022.9mb 76f 87f
3:36pm 8 11 mph 1022.9mb 76f 87f
3:30pm 9 11 mph 1023mb 76f 88f
3:24pm 7 11 mph 1022.9mb 76f 87f
3:18pm 7 10 mph 1023mb 76f 88f
3:12pm 7 11 mph 1023.1mb 76f 88f
3:06pm 8 11 mph 1023.1mb 76f 88f
3:00pm 8 13 mph 1023.2mb 76f 88f
2:54pm 7 14 mph 1023.2mb 76f 89f
2:48pm 9 14 mph 1023.3mb 76f 88f
2:42pm 9 13 mph 1023.4mb 76f 87f
2:36pm 9 13 mph 1023.5mb 76f 87f
2:30pm 8 11 mph 1023.5mb 76f 87f
2:24pm 9 11 mph 1023.6mb 76f 86f
2:18pm 8 13 mph 1023.5mb 76f 87f
2:12pm 9 10 mph 1023.5mb 76f 87f
2:06pm 8 10 mph 1023.6mb 76f 87f
2:00pm 6 10 mph 1023.6mb 76f 88f
1:54pm 7 11 mph 1023.7mb 76f 89f
1:48pm 8 11 mph 1023.7mb 76f 89f
1:42pm 8 11 mph 1023.6mb 76f 88f
1:36pm 6 9 mph 1023.6mb 75f 89f
1:30pm 8 9 mph 1023.5mb 75f 87f
1:24pm 7 10 mph 1023.5mb 75f 88f
1:18pm 7 10 mph 1023.5mb 75f 88f
1:12pm 6 9 mph 1023.6mb 75f 89f
1:06pm 6 8 mph 1023.6mb 75f 88f
1:00pm 7 9 mph 1023.8mb 75f 88f
12:54pm 6 9 mph 1023.7mb 75f 88f
12:48pm 5 8 mph 1023.8mb 75f 90f
12:42pm 6 8 mph 1023.8mb 75f 88f
12:36pm 6 8 mph 1023.9mb 75f 87f
12:30pm 5 7 mph 1023.8mb 75f 88f
12:24pm 5 9 mph 1023.8mb 75f 88f
12:18pm 6 8 mph 1023.8mb 75f 88f
12:12pm 6 9 mph 1023.8mb 75f 88f
12:06pm 6 8 mph 1023.8mb 75f 87f
12:00pm 7 9 mph 1023.8mb 75f 87f
11:54am 6 8 mph 1023.8mb 75f 88f
11:48am 5 7 mph 1023.8mb 75f 87f
11:42am 5 7 mph 1023.8mb 75f 86f
11:36am 5 7 mph 1023.9mb 75f 87f
11:30am 6 7 mph 1023.9mb 75f 86f
11:24am 6 7 mph 1023.9mb 75f 86f
11:18am 5 7 mph 1023.9mb 76f 85f
11:12am 6 7 mph 1023.9mb 76f 85f
11:06am 6 6 mph 1023.9mb 76f 85f
11:00am 5 7 mph 1023.9mb 76f 85f
10:54am 3 7 mph 1023.8mb 76f 85f
10:48am 5 7 mph 1023.8mb 76f 85f
10:42am 6 7 mph 1023.8mb 75f 85f
10:36am 6 7 mph 1023.8mb 75f 85f
10:30am 6 7 mph 1023.7mb 75f 84f
10:24am 6 6 mph 1023.7mb 75f 85f
10:18am 5 6 mph 1023.6mb 75f 84f
10:12am 5 6 mph 1023.6mb 75f 84f
10:06am 5 6 mph 1023.5mb 75f 84f
10:00am 5 6 mph 1023.5mb 76f 84f
9:54am 5 6 mph 1023.5mb 76f 84f
9:48am 5 6 mph 1023.5mb 76f 84f
9:42am 5 6 mph 1023.5mb 76f 84f
9:36am 5 6 mph 1023.5mb 76f 83f
9:30am 5 6 mph 1023.5mb - -
9:24am 5 6 mph 1023.4mb 76f 83f
9:18am 3 5 mph 1023.4mb 76f 83f
9:12am 3 5 mph 1023.4mb 76f 83f
9:06am 5 5 mph 1023.3mb 76f 83f
9:00am 3 3 mph 1023.2mb 76f 83f
8:54am 2 3 mph 1023.1mb 76f 82f
8:48am 3 5 mph 1023mb 76f 82f
8:42am 3 3 mph 1022.9mb 76f 82f
8:36am 2 3 mph 1022.8mb 76f 82f
8:30am 2 3 mph 1022.8mb 76f 82f
8:24am 2 2 mph 1022.8mb 76f 82f
8:18am 2 2 mph 1022.7mb 77f 83f
8:12am  -  1 mph 1022.5mb 77f 83f
8:06am  -  1 mph 1022.5mb 77f 82f
8:00am  -  1 mph 1022.5mb 77f 82f
7:54am  -  2 mph 1022.5mb 77f 81f
7:48am 2 2 mph 1022.4mb 77f 80f
7:42am  -  2 mph 1022.5mb 78f 79f
7:36am  -  1 mph 1022.4mb 78f 79f
7:30am  -  1 mph 1022.5mb 78f 79f
7:24am  -  1 mph 1022.4mb 78f 78f
7:18am  -  2 mph 1022.4mb 78f 77f
7:12am 1 2 mph 1022.4mb - -
7:06am 1 2 mph 1022.4mb 78f 77f
7:00am  -  1 mph 1022.3mb 78f 78f
6:54am 1 1 mph 1022.3mb 78f 78f
6:48am 1 2 mph 1022.2mb 78f 78f
6:42am 2 3 mph 1022.2mb 78f 78f
6:36am 3 3 mph 1022.1mb 78f 78f
6:30am 2 3 mph 1022mb - -
6:24am 3 6 mph 1021.9mb 78f 78f
6:18am 6 6 mph 1021.8mb 78f 78f
6:12am 2 3 mph 1021.7mb 78f 78f
6:06am 2 3 mph 1021.6mb 78f 78f
6:00am 2 3 mph 1021.5mb 78f 78f
5:54am 2 2 mph 1021.4mb 78f 78f
5:48am 2 3 mph 1021.4mb 78f 78f
5:42am 2 3 mph 1021.3mb 78f 78f
5:36am 2 3 mph 1021.2mb 78f 78f
5:30am 2 3 mph 1021.1mb 78f 78f
5:24am 3 5 mph 1021.1mb 78f 78f
5:18am 5 5 mph 1021mb 78f 78f
5:12am 3 5 mph 1021mb 78f 78f
5:06am 3 3 mph 1021mb 78f 78f
5:00am 2 2 mph 1020.9mb 78f 78f
4:54am 2 2 mph 1021mb 78f 78f
4:48am 2 3 mph 1020.9mb 78f 78f
4:42am 3 3 mph 1020.9mb 78f 78f
4:36am 3 5 mph 1020.9mb 78f 78f
4:30am 3 3 mph 1020.9mb 78f 78f
4:24am 3 5 mph 1020.9mb 78f 78f
4:18am 3 5 mph 1020.9mb 78f 78f
4:12am 3 5 mph 1020.9mb 78f 78f
4:06am 3 3 mph 1021mb 78f 78f
4:00am 2 2 mph 1021.1mb 78f 78f
3:54am 2 2 mph 1021.2mb 78f 78f
3:48am 2 2 mph 1021.2mb 77f 78f
3:42am 2 3 mph 1021.2mb 77f 78f
3:36am 3 5 mph 1021.2mb 77f 78f
3:30am 3 5 mph - - -
3:24am 3 3 mph 1021.2mb 77f 78f
3:18am 3 3 mph 1021.2mb 77f 79f
3:12am 3 3 mph 1021.3mb 77f 79f
3:06am 2 3 mph 1021.4mb 77f 79f
3:00am 2 2 mph 1021.4mb 76f 79f
2:54am 2 3 mph 1021.5mb 76f 79f
2:48am 2 5 mph 1021.5mb 76f 79f
2:42am 3 5 mph 1021.6mb 76f 79f
2:36am 5 6 mph 1021.6mb 76f 79f
2:30am 5 6 mph 1021.7mb 76f 79f
2:24am 3 5 mph 1021.7mb 77f 79f
2:18am 5 5 mph 1021.7mb 76f 79f
2:12am 5 6 mph 1021.8mb 77f 79f
2:06am 6 6 mph 1021.8mb 77f 80f
2:00am 6 7 mph 1021.8mb 77f 80f
1:54am 6 7 mph 1021.9mb 77f 80f
1:48am 6 8 mph 1021.9mb 77f 80f
1:42am 6 8 mph 1022mb 77f 79f
1:36am 6 7 mph 1022mb 77f 80f
1:30am 6 8 mph 1022mb - -
1:24am 6 8 mph 1022.1mb 77f 80f
1:18am 6 9 mph 1022.1mb 77f 80f
1:12am 6 7 mph 1022.2mb 77f 80f
1:06am 6 8 mph 1022.2mb 77f 80f
1:00am 6 8 mph 1022.2mb 77f 80f
12:54am 6 7 mph 1022.2mb 77f 80f
12:48am 6 8 mph 1022.1mb 76f 80f
12:42am 6 7 mph 1022.1mb 76f 80f
12:36am 6 7 mph 1022.2mb 76f 80f
12:30am 5 6 mph 1022.2mb 76f 80f
12:24am 6 6 mph 1022.3mb 76f 80f
12:18am 5 7 mph 1022.3mb 76f 80f
12:12am 6 7 mph 1022.4mb 77f 80f
12:06am 5 7 mph 1022.3mb 77f 80f
12:00am 5 6 mph 1022.3mb 77f 79f
Wed 08/15 11:54pm 5 6 mph 1022.3mb 77f 79f
11:48pm 3 5 mph 1022.4mb 77f 79f
11:42pm 3 5 mph 1022.4mb 77f 79f
11:36pm 2 3 mph 1022.4mb 77f 80f
11:30pm 3 5 mph 1022.4mb 77f 80f
11:24pm 3 3 mph 1022.3mb 77f 80f
11:18pm 3 5 mph 1022.2mb 77f 80f
11:12pm 3 6 mph 1022.3mb 77f 80f
11:06pm 3 5 mph 1022.2mb 77f 79f
11:00pm 3 3 mph 1022.2mb 77f 79f
10:54pm 2 3 mph 1022.2mb 77f 79f
10:48pm 3 3 mph 1022.1mb 77f 79f
10:42pm 3 5 mph 1022.1mb 77f 79f
10:36pm 3 5 mph 1022mb 77f 79f
10:30pm 3 3 mph 1022mb 77f 79f
10:24pm 2 5 mph 1021.9mb 77f 79f
10:18pm 2 3 mph 1021.9mb 77f 79f
10:12pm 3 3 mph 1021.8mb 77f 79f
10:06pm 3 5 mph 1021.7mb 77f 79f
10:00pm 2 5 mph 1021.6mb 77f 79f
9:54pm 3 5 mph 1021.5mb 77f 79f
9:48pm 3 5 mph 1021.3mb 77f 79f
9:42pm 3 5 mph 1021.2mb 77f 79f
9:36pm 3 5 mph 1021.1mb 77f 79f
9:30pm 5 6 mph 1021mb 77f 79f
9:24pm 3 5 mph 1021mb 77f 79f
9:18pm 3 5 mph 1020.9mb 77f 80f
9:12pm 3 5 mph 1020.9mb 77f 80f
9:06pm 3 3 mph 1020.9mb 77f 80f
9:00pm 3 5 mph 1020.9mb 77f 80f
8:54pm 5 6 mph 1021mb 78f 80f
8:48pm 3 6 mph 1020.9mb 78f 80f
8:42pm 5 6 mph 1020.9mb 78f 80f
8:36pm 5 6 mph 1020.9mb 78f 80f
8:30pm 5 7 mph 1021mb 78f 80f
8:24pm 5 7 mph 1021.1mb 78f 80f
8:18pm 6 7 mph 1021.2mb 78f 80f
8:12pm 6 7 mph 1021.2mb 78f 80f
8:06pm 6 7 mph 1021.2mb 78f 81f
8:00pm 5 6 mph 1021.2mb 78f 81f
7:54pm 5 6 mph 1021.1mb 78f 81f
7:48pm 3 6 mph 1021mb 79f 81f
7:42pm 3 5 mph 1020.9mb 79f 81f
7:36pm 2 5 mph 1020.8mb 79f 81f
7:30pm 2 5 mph 1020.6mb 79f 81f
7:24pm 3 5 mph 1020.4mb 79f 82f
7:18pm 3 5 mph 1020.2mb 79f 82f
7:12pm 3 3 mph 1020.1mb 79f 82f
7:06pm 3 6 mph 1020mb 79f 83f
7:00pm 3 7 mph 1020mb 79f 83f
6:54pm 5 6 mph 1020mb 80f 84f
6:48pm 3 6 mph 1019.9mb 80f 85f
6:42pm 3 6 mph 1019.9mb 80f 85f
6:36pm 3 7 mph 1019.8mb 80f 85f
6:30pm 5 7 mph 1019.8mb 80f 85f
6:24pm 5 8 mph 1019.9mb 80f 85f
6:18pm 7 9 mph 1020mb 80f 85f
6:12pm 5 6 mph 1020mb 80f 86f
6:06pm 5 8 mph 1020mb 80f 86f
6:00pm 7 9 mph 1020.1mb 80f 85f
5:54pm 6 10 mph 1020.1mb 79f 86f
5:48pm 7 9 mph 1020mb 79f 85f
5:42pm 6 9 mph 1020mb 79f 86f
5:36pm 6 9 mph 1019.9mb 79f 86f
5:30pm 6 8 mph 1019.9mb 79f 86f
5:24pm 7 9 mph 1019.9mb 79f 85f
5:18pm 5 8 mph 1019.9mb 79f 87f
5:12pm 7 10 mph 1019.9mb 78f 86f
5:06pm 6 10 mph 1019.8mb 78f 87f
5:00pm 7 10 mph 1019.9mb 78f 86f
4:54pm 7 9 mph 1020mb 78f 87f
4:48pm 7 10 mph 1020.2mb 79f 87f
4:42pm 7 9 mph 1020.3mb 79f 87f
4:36pm 8 10 mph 1020.4mb 78f 86f
4:30pm 6 9 mph 1020.4mb 78f 89f
4:24pm 6 9 mph 1020.5mb 78f 88f
4:18pm 7 10 mph 1020.5mb 78f 88f
4:12pm 8 10 mph 1020.5mb 78f 87f
4:06pm 7 9 mph 1020.5mb 78f 87f
4:00pm 7 10 mph 1020.7mb 78f 87f
3:54pm 7 10 mph 1020.7mb 78f 87f
3:48pm 7 10 mph 1020.8mb 78f 87f
3:42pm 8 10 mph 1020.8mb 78f 87f
3:36pm 8 10 mph 1020.8mb 78f 87f
3:30pm 7 10 mph 1020.9mb 78f 88f
3:24pm 8 10 mph 1020.9mb 78f 87f
3:18pm 8 10 mph 1020.9mb 78f 86f
3:12pm 8 11 mph 1021mb 78f 85f
3:06pm 7 10 mph 1021.1mb 78f 86f
3:00pm 8 10 mph 1021.2mb 78f 86f
2:54pm 7 10 mph 1021.3mb 78f 86f
2:48pm 8 11 mph 1021.4mb 78f 87f
2:42pm 7 10 mph 1021.4mb 78f 87f
2:36pm 8 10 mph 1021.4mb 78f 87f
2:30pm 8 10 mph 1021.4mb 78f 87f
2:24pm 7 10 mph 1021.5mb 77f 88f
2:18pm 9 13 mph 1021.5mb 78f 86f
2:12pm 7 10 mph 1021.6mb 77f 87f
2:06pm 7 10 mph 1021.6mb 77f 86f
2:00pm 7 10 mph 1021.7mb 77f 86f
1:54pm 7 8 mph 1021.7mb 77f 85f
1:48pm 6 8 mph 1021.8mb 77f 84f
1:42pm 6 9 mph 1021.7mb 77f 84f
1:36pm 6 9 mph 1021.8mb 77f 85f
1:30pm 7 10 mph 1021.7mb 77f 86f
1:24pm 6 9 mph 1021.8mb 77f 87f
1:18pm 6 9 mph 1021.9mb 77f 87f
1:12pm 7 10 mph 1021.9mb 77f 87f
1:06pm 6 9 mph 1021.9mb 77f 88f
1:00pm 7 9 mph 1022mb 77f 87f
12:54pm 7 9 mph 1022.1mb 77f 87f
12:48pm 7 9 mph 1022.1mb 77f 87f
12:42pm 6 8 mph 1022.1mb 77f 88f
12:36pm 5 8 mph 1022.1mb 77f 88f
12:30pm 5 8 mph 1022.1mb 77f 87f
12:24pm 6 9 mph 1022.2mb 77f 86f
12:18pm 6 8 mph 1022.3mb 77f 86f
12:06pm 5 7 mph 1022.3mb 77f 86f
12:00pm 5 7 mph 1022.3mb 77f 87f
11:54am 6 7 mph 1022.2mb 77f 87f
11:48am 5 7 mph 1022.2mb 77f 87f
11:42am 5 6 mph 1022.1mb 77f 86f
11:36am 5 6 mph 1022.1mb 77f 86f
11:30am 2 7 mph 1022.1mb 77f 87f
11:24am 5 7 mph 1022.1mb 77f 85f
11:18am 5 6 mph 1022mb 77f 85f
11:12am 5 6 mph 1022mb 77f 85f
11:06am 6 7 mph 1021.9mb 77f 84f
11:00am 6 7 mph - - -
10:54am 5 7 mph 1022mb 77f 85f
10:48am 5 6 mph 1022mb 77f 85f
10:42am 3 6 mph 1021.9mb 77f 85f
10:36am 3 6 mph 1021.8mb 77f 85f
10:30am 5 6 mph 1021.8mb 77f 84f
10:24am 5 6 mph 1021.7mb 77f 83f
10:18am 3 6 mph 1021.6mb 77f 84f
10:12am 5 6 mph 1021.5mb 77f 84f
10:06am 5 6 mph 1021.5mb 77f 84f
10:00am 5 6 mph 1021.5mb 77f 83f
9:54am 3 6 mph 1021.4mb 77f 84f
9:48am 3 6 mph 1021.4mb 77f 83f
9:36am 3 5 mph 1021.3mb 77f 83f
9:30am 3 3 mph 1021.3mb 77f 82f
9:24am 3 3 mph 1021.3mb 77f 82f
9:18am 2 3 mph 1021.1mb 77f 82f
9:12am 3 3 mph 1021.2mb 77f 81f
9:06am 2 3 mph 1021.2mb 77f 82f
9:00am 3 5 mph 1021.1mb 77f 82f
8:42am 3 5 mph 1021.1mb 77f 81f
8:36am 2 3 mph 1021mb 77f 80f
8:30am 3 3 mph 1021mb 77f 80f
8:24am 2 3 mph 1021mb 78f 80f
8:18am 2 2 mph 1020.9mb 78f 80f
8:12am 2 3 mph 1020.7mb 78f 79f
8:06am 2 3 mph 1020.7mb 78f 79f
8:00am 3 5 mph 1020.7mb 78f 78f
7:54am 3 5 mph 1020.6mb 78f 78f
7:48am 3 5 mph 1020.6mb 78f 77f
7:36am 3 3 mph 1020.6mb 78f 76f
7:30am 1 2 mph 1020.5mb 78f 76f
7:24am 2 3 mph 1020.5mb 78f 76f
7:18am 2 3 mph 1020.4mb 79f 76f
7:12am 3 5 mph 1020.4mb 79f 76f
7:06am 3 5 mph 1020.3mb 79f 76f
7:00am 5 6 mph 1020.1mb 79f 75f
6:54am 3 5 mph 1020.1mb 79f 75f
6:48am 3 5 mph 1020mb 80f 76f
6:42am 3 3 mph 1019.9mb 80f 76f
6:36am 2 5 mph 1019.9mb 80f 76f
6:30am 3 3 mph 1019.8mb 80f 75f
6:24am 2 2 mph 1019.7mb 80f 75f
6:18am 2 3 mph 1019.6mb 80f 75f
6:12am 3 5 mph 1019.6mb 80f 75f
6:06am 5 5 mph 1019.5mb 80f 76f
6:00am 3 5 mph 1019.5mb 80f 76f
5:54am 3 3 mph 1019.6mb 80f 76f
5:48am 3 3 mph 1019.6mb 80f 75f
5:42am 2 2 mph 1019.5mb 80f 76f
5:36am 2 3 mph 1019.5mb 80f 76f
5:30am 2 3 mph 1019.4mb 80f 76f
5:24am 2 3 mph 1019.4mb 80f 76f
5:18am 2 2 mph 1019.3mb 80f 76f
5:12am 2 2 mph 1019.3mb 80f 75f
5:06am  -  1 mph 1019.3mb 80f 75f
5:00am 1 1 mph 1019.3mb 80f 75f
4:54am 1 3 mph 1019.3mb 80f 75f
4:48am 3 5 mph - - -
4:42am 2 3 mph 1019.2mb 80f 75f
4:36am 2 2 mph 1019.2mb 80f 75f
4:30am 2 3 mph 1019.2mb 80f 75f
4:24am 3 3 mph 1019.1mb 80f 76f
4:18am 2 2 mph 1019.1mb 80f 76f
4:12am 2 3 mph 1019.2mb 80f 75f
4:06am 3 3 mph 1019.2mb 80f 76f
4:00am 3 3 mph 1019.3mb 80f 76f
3:54am 2 3 mph 1019.3mb 80f 76f
3:48am 3 3 mph 1019.3mb 80f 76f
3:42am 2 3 mph 1019.2mb 80f 76f
3:36am 3 3 mph 1019.3mb 80f 76f
3:30am 5 5 mph 1019.3mb 80f -
3:24am 5 5 mph 1019.4mb 80f 76f
3:18am 5 5 mph - - -
3:12am 3 5 mph 1019.5mb 80f 76f
3:06am  -  2 mph 1019.7mb 80f 76f
3:00am 2 2 mph 1019.8mb 80f 76f
2:54am 1 2 mph 1019.8mb 79f 76f
2:48am 1 2 mph 1019.9mb 79f 75f
2:42am 1 2 mph 1020mb 79f 75f
2:36am  -  1 mph 1020mb 79f 76f
2:30am  -  1 mph 1020mb 79f 76f
2:24am 1 3 mph 1020.1mb 79f 77f
2:18am 3 5 mph 1020.1mb 79f 77f
2:12am 5 6 mph 1020.1mb 78f 77f
2:06am 5 5 mph 1020.2mb 78f 77f
2:00am 3 6 mph 1020.3mb 78f 77f
1:54am 5 5 mph 1020.4mb 78f 77f
1:48am 2 2 mph 1020.5mb 78f 76f
1:42am 1 2 mph 1020.6mb 78f 76f
1:36am  -  1 mph 1020.7mb 78f 77f
1:30am  -  2 mph 1020.6mb 78f 77f
1:24am 3 3 mph 1020.6mb 78f 77f
1:18am 3 3 mph 1020.6mb 78f 77f
1:12am 2 3 mph 1020.7mb 78f 77f
1:06am 3 3 mph 1020.8mb 78f 77f
1:00am 2 3 mph 1020.8mb 78f 78f
12:54am 3 5 mph 1020.8mb 78f 77f
12:48am 2 5 mph 1020.9mb 78f 77f
12:42am 3 5 mph 1020.9mb 78f 78f
12:36am 3 6 mph 1020.9mb 78f 78f
12:30am 5 6 mph 1020.8mb 78f 78f
12:24am 1 2 mph 1020.9mb 78f 78f
12:18am  -  1 mph 1021mb - -
12:12am  -  0 mph 1021mb 78f 78f
12:06am  -  1 mph 1021mb 78f 79f
12:00am  -  1 mph 1021mb 78f 78f
Tue 08/14 11:54pm 1 2 mph 1021mb 77f 77f
11:48pm 2 3 mph 1021mb 77f 77f
11:42pm 1 2 mph 1021mb 78f 78f
11:36pm  -  2 mph 1020.9mb 77f 78f
11:30pm 2 2 mph 1020.9mb 78f 78f
11:24pm  -  2 mph 1020.8mb 78f 79f
11:18pm 2 3 mph 1020.7mb 78f 79f
11:12pm 2 3 mph 1020.5mb 78f 79f
11:06pm 3 3 mph 1020.5mb 78f 80f
11:00pm 3 3 mph 1020.5mb 78f 80f
10:54pm 2 5 mph 1020.5mb 78f 80f
10:48pm 5 7 mph 1020.5mb 78f 80f
10:42pm 6 7 mph 1020.5mb 78f 80f
10:36pm 6 8 mph 1020.4mb 78f 80f
10:30pm 6 7 mph 1020.3mb 78f 80f
10:24pm 5 6 mph 1020.3mb 78f 80f
10:18pm 3 5 mph 1020.2mb 78f 80f
10:12pm 6 8 mph 1020.1mb 78f 80f
10:06pm 6 8 mph 1020.1mb 78f 81f
10:00pm 7 9 mph 1020mb 78f 81f
9:54pm 8 10 mph 1020mb 78f 81f
9:48pm 9 11 mph 1019.9mb 78f 81f
9:42pm 10 10 mph 1019.9mb 79f 82f
9:36pm 7 9 mph 1020mb 79f 81f
9:30pm 10 13 mph 1020mb 79f 80f
9:24pm 10 14 mph 1020mb 79f 80f
9:18pm 13 16 mph 1020mb 79f 80f
9:12pm 11 14 mph 1020mb 79f 80f
9:06pm 11 13 mph 1019.9mb 79f 79f
9:00pm 10 13 mph 1019.7mb 79f 79f
8:48pm 10 13 mph 1019.7mb 81f 79f
8:42pm 8 10 mph 1019.6mb 81f 79f
8:36pm 9 10 mph 1019.4mb 81f 79f
8:30pm 9 10 mph 1019.3mb 81f 79f
8:24pm 8 10 mph 1019.3mb 82f 79f
8:18pm 8 10 mph 1019.4mb 82f 79f
8:12pm 8 10 mph 1019.4mb 82f 79f
8:06pm 9 11 mph 1019.3mb 82f 79f
8:00pm 9 10 mph 1019.2mb 82f 79f
7:54pm 8 10 mph 1019.1mb 81f 79f
7:48pm 7 9 mph 1019mb 81f 79f
7:42pm 6 8 mph 1019.1mb 81f 79f
7:36pm 6 7 mph 1019mb 81f 79f
7:30pm 6 8 mph 1019.1mb 81f 79f
7:24pm 7 8 mph 1019.1mb 82f 79f
7:18pm 7 8 mph 1019.1mb 82f 79f
7:12pm 6 9 mph 1019mb 82f 80f
7:06pm 6 8 mph 1018.8mb 82f 80f
7:00pm 6 8 mph 1018.9mb 82f 80f
6:54pm 7 9 mph 1018.8mb 82f 80f
6:48pm 8 10 mph 1018.7mb 82f 81f
6:42pm 8 10 mph 1018.7mb 82f 82f
6:36pm 8 10 mph 1018.7mb 82f 82f
6:30pm 7 9 mph 1018.8mb 82f 81f
6:24pm 8 10 mph 1018.8mb 82f 80f
6:18pm 8 10 mph 1018.8mb 82f 80f
6:12pm 9 11 mph 1018.8mb 82f 81f
6:06pm 8 10 mph 1018.8mb 82f 81f
6:00pm 7 10 mph 1018.7mb 82f 81f
4:00pm 9 13 mph 1019.1mb 81f 85f
3:54pm 9 13 mph 1019.3mb 81f 85f
3:48pm 9 11 mph 1019.3mb 81f 86f
3:42pm 8 14 mph 1019.3mb 81f 85f
3:36pm 8 11 mph 1019.4mb 81f 83f
3:30pm 8 13 mph 1019.6mb 81f 86f
3:24pm 8 13 mph 1019.7mb 81f 86f
3:18pm 11 15 mph 1019.7mb 81f 85f
3:12pm 9 13 mph 1019.7mb 80f 86f
3:06pm 9 14 mph 1019.7mb 80f 85f
3:00pm 8 13 mph 1019.7mb 80f 86f
2:54pm 7 13 mph 1019.7mb 80f 86f
2:48pm 9 11 mph 1019.7mb - -
2:42pm 8 13 mph 1019.8mb 80f 85f
2:36pm 8 11 mph 1019.9mb 80f 86f
2:30pm 9 13 mph 1019.9mb 80f 85f
2:24pm 7 13 mph 1020mb 80f 86f
2:18pm 8 13 mph 1020mb 80f 85f
2:06pm 8 13 mph 1020.2mb 80f 85f